Location: Zagreb
(45.8000°N, 16.0000°E)
Time: 20:03:07
(UTC+01:00)

deb Explorer IX - Pass Details

Date: 04 October 2020
Orbit: 537 x 1106 km, 38.8° (Epoch: 30 October)

Event Time Altitude Azimuth Distance (km) Brightness Sun altitude
Rises 14:47:40 0° 206° (SSW) 3,588 ? 32.6°
Reaches altitude 10° 14:51:37 10° 184° (S) 2,518 ? 32.2°
Maximum altitude 14:54:44 15° 152° (SSE) 2,100 ? 31.8°
Drops below altitude 10° 14:57:39 10° 119° (ESE) 2,307 ? 31.5°
Sets 15:01:00 0° 96° (E) 3,109 ? 31.1°
